Overview Statistics Trail Chart Weather Telemetry Raw packets
 

This is the latest recevied weather packets stored in our database for station/object SV9TNF-51. If no packets are shown the sender has not sent any weather packets the latest 10 day(s).

<< 41 42 43 44 45 46 47 >>
Time Temp. Humidity Pressure Rain* Wind** Luminosity Snow
1788391438 24.44° C 46% 1010.8 hPa 0 mm 5.81 m/s, 329° - -
1788391138 24.44° C 45% 1010.8 hPa 0 mm 4.92 m/s, 329° - -
1788390838 24.44° C 45% 1010.8 hPa 0 mm 5.81 m/s, 322° - -
1788390538 23.89° C 48% 1010.8 hPa 0 mm 5.36 m/s, 329° - -
1788390238 23.33° C 49% 1010.8 hPa 0 mm 4.92 m/s, 339° - -
1788389937 23.33° C 52% 1010.8 hPa 0 mm 4.92 m/s, 332° - -
1788389637 23.89° C 56% 1010.8 hPa 0 mm 3.58 m/s, 269° - -
1788389337 23.89° C 57% 1010.8 hPa 0 mm 4.47 m/s, 347° - -
1788389037 23.89° C 55% 1010.8 hPa 0 mm 4.92 m/s, 334° - -
1788388737 23.89° C 54% 1010.8 hPa 0 mm 4.92 m/s, 7° - -
1788388437 23.33° C 62% 1011.2 hPa 0 mm 5.81 m/s, 337° - -
1788388137 24.44° C 68% 1011.2 hPa 0 mm 8.05 m/s, 325° - -
1788387837 24.44° C 67% 1011.2 hPa 0 mm 5.81 m/s, 339° - -
1788387537 24.44° C 66% 1011.2 hPa 0 mm 4.02 m/s, 122° - -
1788387237 24.44° C 65% 1011.2 hPa 0 mm 3.58 m/s, 344° - -
1788386937 25° C 60% 1011.2 hPa 0 mm 5.81 m/s, 333° - -
1788386644 24.44° C 61% 1011.2 hPa 0 mm 5.81 m/s, 356° - -
1788386336 25° C 65% 1011.2 hPa 0 mm 5.81 m/s, 344° - -
1788386036 25° C 65% 1011.2 hPa 0 mm 6.71 m/s, 335° - -
1788385736 25° C 63% 1011.2 hPa 0 mm 4.92 m/s, 23° - -
1788385436 25° C 62% 1011.5 hPa 0 mm 6.26 m/s, 330° - -
1788385136 25° C 62% 1011.5 hPa 0 mm 5.36 m/s, 338° - -
1788384836 25.56° C 61% 1011.5 hPa 0 mm 6.26 m/s, 344° - -
1788384536 25° C 61% 1011.5 hPa 0 mm 5.81 m/s, 341° - -
1788384236 25° C 62% 1011.2 hPa 0 mm 3.13 m/s, 96° - -

* Rain latest hour (hover to see other rain measurements)
** Current wind speed in m/s (hover to see current wind gust speed)